Theta_e
353 354 354 354 354 355 355 354 353 353 354 353 352 349 348 348 349 349 349 350 351 350 348 345 345 344 345 345 345 344 347 352 353 359 363 364 365 367 369 369 368 368 367 367 367 367 367 368 367 367 366 366 366 365 364 362 360 360 360 360 359 359 359 359 359 359 360 360 361 359 359 359 359 359 359 358 358 357 357 357 357 357 357 357 356
354 354 354 353 353 354 354 353 353 353 354 352 352 350 348 347 347 348 348 345 340 342 348 343 342 342 343 342 343 342 348 351 352 358 364 366 364 366 371 370 368 367 367 367 367 368 367 367 368 367 367 367 365 362 359 359 359 359 359 359 359 358 359 359 359 358 359 359 360 359 359 358 359 359 359 358 357 359 357 357 357 357 357 357 356
355 354 354 352 352 352 352 353 352 353 354 352 352 352 349 347 347 346 346 344 341 341 343 340 342 341 342 342 342 344 349 351 356 363 366 366 366 367 370 370 368 368 367 367 367 368 368 367 367 366 366 366 363 359 359 359 358 358 357 357 357 358 359 360 359 358 358 358 359 358 359 359 359 358 359 358 358 357 356 357 357 357 357 357 356
356 355 354 352 352 352 352 352 352 353 353 351 350 351 349 347 348 348 349 346 345 341 342 344 340 339 339 341 341 345 349 354 360 363 365 366 364 365 365 368 370 368 368 368 368 367 367 367 367 365 365 362 359 359 359 359 358 358 357 357 357 360 360 360 360 359 360 360 360 360 358 359 359 359 358 358 357 357 356 357 357 357 357 357 357
356 356 357 352 352 352 352 352 352 353 353 352 351 349 347 346 345 348 349 347 343 341 340 339 338 338 339 340 339 346 351 356 360 362 363 365 365 366 366 367 367 369 369 369 368 367 367 367 367 366 364 359 359 360 360 359 358 358 357 356 355 360 360 360 360 361 360 360 360 360 359 359 359 358 358 358 357 357 356 355 355 356 356 356 357
356 355 356 353 352 352 352 352 353 354 353 353 349 347 344 344 344 346 352 347 339 338 338 337 337 338 342 343 341 346 352 356 361 362 363 364 365 365 366 365 365 365 367 369 369 368 367 367 365 364 361 360 360 359 359 358 358 357 356 355 355 360 361 360 360 360 360 360 359 359 359 360 359 358 357 356 356 357 356 356 356 357 356 356 356
356 354 355 354 352 352 353 353 352 353 351 351 349 347 345 343 346 344 344 343 344 345 338 336 335 336 338 346 342 346 351 356 361 362 363 363 363 365 365 365 365 366 367 364 367 368 367 366 363 362 361 360 360 360 358 357 357 356 355 355 355 357 360 360 360 360 360 360 360 360 359 359 358 357 357 356 356 357 356 356 356 356 356 356 356
356 353 353 354 352 351 352 353 352 351 349 348 349 345 345 345 346 346 342 340 346 340 344 337 334 335 341 342 343 346 349 353 357 360 362 362 363 364 364 364 364 363 367 362 362 366 366 364 363 362 361 360 359 359 358 358 357 356 355 355 355 355 359 360 361 360 360 360 359 359 359 359 358 358 357 357 356 356 356 356 355 355 355 355 355
356 354 354 353 352 352 352 352 352 349 347 346 347 349 345 347 345 350 343 339 342 337 335 338 335 337 341 341 342 348 345 349 354 356 358 359 361 364 363 363 363 369 364 362 362 364 365 364 363 363 362 361 360 358 358 357 357 356 355 355 354 355 358 360 359 360 359 359 359 360 359 358 358 357 357 357 357 356 356 355 355 355 354 354 355
356 354 354 354 352 351 351 350 350 349 347 347 346 347 347 346 343 344 348 341 341 339 337 336 337 339 340 341 344 346 343 346 351 361 355 357 359 361 361 363 365 366 363 363 363 361 361 361 363 363 362 360 359 357 356 356 357 356 355 355 354 354 355 358 358 359 359 359 359 359 358 358 358 357 357 356 355 355 354 354 354 353 353 353 354
357 355 354 353 353 351 350 348 349 347 346 346 346 346 347 344 343 342 354 345 343 341 335 337 339 345 344 342 342 344 345 347 355 354 354 357 359 361 360 361 366 363 362 362 362 362 360 358 358 356 357 361 360 358 356 355 355 355 355 355 355 354 353 356 358 358 359 359 359 358 359 358 356 355 355 355 354 353 354 353 353 353 352 353 352
358 357 355 356 355 355 354 354 350 347 345 345 344 342 343 345 342 340 341 346 349 345 339 341 339 341 349 345 346 343 347 355 350 351 353 356 359 359 358 359 361 363 363 362 363 362 360 358 360 356 357 360 360 358 356 356 355 354 354 354 353 352 352 354 357 358 358 358 358 358 358 358 357 356 355 354 353 353 353 352 352 352 351 351 350
359 357 357 360 360 357 355 353 351 348 346 345 344 342 343 344 345 356 343 339 340 342 339 338 335 335 341 340 342 346 357 351 349 350 351 353 356 355 356 357 357 363 363 363 363 361 359 358 359 356 356 355 358 359 357 356 355 354 354 353 353 353 352 353 354 356 357 357 357 357 357 356 356 355 355 355 354 354 354 354 353 353 352 352 352
360 357 359 356 357 357 356 354 349 348 348 349 347 362 356 349 349 342 346 342 340 340 335 336 335 330 332 334 339 341 351 346 347 349 354 354 355 353 355 355 356 357 362 363 362 361 361 360 362 355 355 354 353 353 353 353 355 355 355 354 353 353 352 351 352 354 355 356 356 356 356 356 355 355 355 354 354 354 354 354 354 354 353 353 352
358 360 358 358 356 355 355 352 349 355 352 347 352 349 351 344 346 342 341 343 342 342 339 336 330 338 338 333 331 335 339 341 345 345 351 352 353 352 357 356 356 356 357 360 359 360 361 361 361 355 355 352 353 353 354 356 354 354 353 353 353 352 351 351 351 353 353 354 354 354 354 354 354 354 354 354 354 354 354 354 353 353 353 353 353
359 358 358 357 357 355 355 353 350 353 348 345 349 348 350 347 347 350 342 337 334 335 346 338 341 334 330 331 328 331 327 329 337 341 347 350 351 350 356 354 357 356 359 356 357 359 360 361 359 356 355 354 353 352 354 350 356 356 355 353 352 352 352 351 351 351 351 352 353 353 353 353 353 353 353 353 353 353 353 353 352 352 352 352 352
358 358 360 356 355 354 353 353 350 351 351 347 348 350 351 349 346 347 342 338 337 338 339 344 338 339 335 328 328 326 324 325 336 334 342 343 347 348 354 352 355 355 355 356 358 359 360 360 359 358 357 357 355 352 353 352 353 357 353 353 352 352 351 351 351 350 350 351 351 351 351 352 352 352 352 352 352 353 352 352 352 351 351 350 350
356 357 357 359 353 353 354 354 353 351 354 348 350 351 347 348 346 344 344 342 340 338 334 342 340 346 341 334 331 325 329 335 331 325 339 343 345 347 348 353 353 353 352 355 356 356 360 358 357 357 358 358 359 355 351 350 354 351 349 351 354 352 351 351 350 350 350 349 349 349 350 350 351 351 351 351 351 351 351 351 350 350 350 349 349
355 355 354 356 355 353 353 355 355 348 356 348 347 344 344 347 351 344 342 347 338 335 333 332 337 341 341 341 341 342 339 332 329 333 328 332 341 343 346 350 351 350 351 352 356 355 356 357 357 357 356 357 357 359 351 350 353 351 354 355 354 353 352 351 351 350 349 349 347 348 348 349 348 348 350 350 350 350 349 350 350 349 349 348 348
353 353 353 353 356 352 352 354 355 351 352 348 345 345 348 347 350 347 344 343 338 335 332 334 334 335 347 342 342 342 338 335 337 333 328 327 331 342 344 347 348 349 350 352 353 354 355 356 356 356 356 356 356 358 350 348 349 350 353 355 354 353 352 351 351 350 349 349 348 347 347 346 347 347 347 349 349 349 349 349 349 349 348 347 347
352 351 351 350 357 354 351 353 354 355 363 354 349 349 345 343 341 347 344 343 342 340 338 336 339 337 338 337 338 342 339 340 338 341 334 328 328 334 336 342 344 344 346 349 351 353 356 357 358 359 359 358 357 357 351 348 349 348 352 356 355 354 353 352 351 349 349 349 348 347 346 346 346 345 346 346 346 346 346 346 347 347 347 347 346
351 350 349 348 352 354 352 351 353 355 362 355 349 347 346 345 344 347 347 345 353 354 343 342 341 340 339 338 337 338 334 335 336 335 335 333 328 331 335 335 334 338 343 344 347 354 355 358 360 361 359 359 358 357 352 349 349 348 350 356 356 354 353 352 351 350 349 348 347 347 347 345 345 345 345 345 345 344 344 343 344 345 345 345 346
350 350 349 348 352 355 352 351 352 359 361 356 353 350 346 344 343 344 349 347 351 347 354 350 348 344 343 340 338 336 335 334 332 334 334 331 331 331 332 336 336 335 337 344 347 352 357 358 359 360 360 359 358 357 353 351 355 352 354 357 357 355 354 353 351 351 349 348 347 347 346 345 345 345 344 343 343 344 342 341 342 342 342 341 342
348 347 350 352 354 354 355 352 354 353 352 353 353 351 349 349 347 344 347 348 348 351 345 344 346 343 342 341 338 336 335 335 335 336 335 333 333 331 331 334 335 334 337 346 349 354 357 358 359 360 361 359 358 355 353 352 353 358 356 357 357 356 354 353 352 351 350 348 348 347 347 346 345 345 344 344 342 341 341 340 342 341 342 342 342
347 346 348 352 355 354 354 352 352 354 354 352 351 351 350 349 349 350 349 346 347 349 345 344 346 345 345 344 341 338 336 336 335 335 336 338 338 332 333 335 330 333 340 345 346 353 357 358 358 359 360 360 359 355 352 351 350 357 360 357 358 356 355 354 353 352 350 349 347 347 347 347 346 346 344 344 343 342 341 340 339 340 343 342 342
347 346 348 351 353 354 355 353 353 353 355 353 351 350 350 347 347 350 350 349 349 349 347 348 348 347 345 344 343 342 341 341 339 338 337 338 335 333 333 337 336 333 339 344 349 348 350 356 359 359 359 359 359 356 353 350 349 358 361 353 356 356 355 354 353 353 351 350 348 347 347 347 347 347 346 345 343 341 341 341 339 341 343 342 342
347 347 349 350 350 351 353 353 352 352 354 353 354 351 351 353 355 354 357 353 352 351 349 349 350 348 347 345 345 344 343 342 341 341 340 338 335 336 336 330 330 335 338 343 345 346 346 350 359 359 358 358 357 357 356 352 352 356 362 353 351 354 353 353 354 353 352 351 350 348 347 346 347 347 346 345 344 342 342 341 339 341 342 342 342
347 348 347 349 349 350 352 352 352 352 352 353 352 351 351 351 350 353 350 359 354 353 351 352 350 349 348 348 346 344 346 346 345 345 343 342 341 339 340 335 330 327 334 335 341 344 348 348 352 358 359 358 357 358 360 358 353 358 363 351 348 350 352 351 352 353 353 352 351 350 349 347 346 346 346 346 344 343 342 341 340 340 340 340 341
348 350 349 348 348 349 350 352 351 352 351 353 353 352 351 350 350 348 349 353 354 351 352 350 351 352 351 350 348 347 346 347 347 346 348 346 345 341 341 337 335 331 330 331 333 338 341 350 347 351 358 359 357 358 359 356 357 359 358 351 347 346 349 349 349 350 351 351 351 350 349 348 348 347 347 346 345 345 344 343 341 341 340 340 339
350 350 349 348 348 354 349 351 351 351 351 351 351 351 350 349 349 349 349 351 351 353 354 353 351 351 351 351 350 348 349 347 346 346 346 345 343 340 339 340 340 335 332 329 329 337 339 346 350 349 352 357 359 358 358 356 358 361 357 350 345 345 348 349 348 347 348 348 349 350 349 349 349 348 347 347 346 345 345 343 342 342 341 341 340
352 350 349 347 347 350 348 349 350 350 349 349 348 348 349 349 350 349 350 351 350 349 351 354 353 353 351 349 349 348 349 348 348 347 346 346 343 343 342 340 342 338 336 334 330 334 344 343 348 352 351 353 359 359 359 358 357 359 355 348 345 348 349 348 348 346 346 345 346 348 349 350 350 349 348 347 346 345 345 344 343 342 341 343 342
350 350 348 348 347 349 348 347 348 348 348 348 347 347 347 348 349 350 350 350 350 349 350 354 354 352 350 348 348 348 348 348 347 347 346 346 345 342 341 342 340 342 340 336 333 333 342 346 346 348 353 352 356 358 357 358 358 358 353 348 346 351 347 345 347 346 344 344 343 343 345 348 349 349 349 348 347 346 346 345 344 343 342 343 343
348 348 348 346 346 347 349 347 346 345 348 347 347 348 347 347 348 349 349 350 349 350 351 350 351 351 350 348 348 348 348 347 346 346 346 346 345 344 344 342 340 340 339 338 335 336 339 348 349 349 352 355 353 357 356 355 356 355 353 348 347 345 344 343 344 345 344 343 342 341 341 343 347 349 349 349 348 347 347 346 345 343 343 343 344
349 349 348 347 347 346 345 344 345 346 345 344 346 347 347 347 347 350 350 348 349 349 350 349 349 351 350 348 348 349 350 349 348 348 346 345 344 343 343 341 338 338 342 341 339 336 335 339 345 350 350 355 352 356 355 352 353 352 349 347 347 346 344 343 342 343 344 342 341 340 339 340 342 346 348 349 348 347 346 346 345 343 342 343 342
350 351 351 349 349 347 347 346 346 347 346 346 346 346 347 348 347 348 350 348 348 348 348 348 349 349 349 349 348 349 350 348 348 348 347 346 346 344 344 343 341 342 346 344 342 337 338 338 342 345 346 348 352 351 355 354 354 352 348 347 346 347 347 345 343 342 342 342 341 339 339 338 338 340 343 345 346 347 346 346 344 338 337 338 336
351 351 349 348 349 348 349 348 348 347 347 348 348 346 346 347 348 348 348 348 347 348 348 349 349 349 348 348 348 348 349 348 347 347 347 347 345 345 344 343 341 341 344 342 340 338 338 338 339 344 345 343 345 346 353 356 353 349 348 348 347 346 347 347 346 344 343 341 340 339 338 337 337 337 338 340 342 343 342 338 336 333 332 332 333
355 351 352 352 349 348 347 347 347 348 349 350 349 348 347 348 347 347 348 347 346 347 348 349 355 349 349 348 348 348 347 347 346 346 345 344 345 344 342 341 341 342 344 340 339 339 337 336 337 339 340 342 347 348 350 349 346 346 345 345 346 346 346 346 347 347 345 343 341 339 338 338 337 336 335 336 336 337 336 334 333 332 330 330 331
354 354 352 351 350 347 347 347 347 347 349 351 351 350 350 349 350 351 350 350 349 348 349 349 352 347 347 346 346 346 345 344 344 345 344 344 344 344 343 342 341 342 341 341 340 338 336 336 336 337 338 339 340 344 345 346 345 344 343 344 344 344 344 344 345 347 347 345 342 341 339 338 337 335 335 334 334 334 334 334 332 330 329 328 329
353 352 353 352 353 349 348 348 348 348 348 350 349 349 349 349 351 351 349 348 349 350 350 349 348 347 346 345 345 345 344 344 344 344 344 344 345 344 345 343 343 342 342 340 341 338 337 337 339 339 337 340 341 339 342 344 345 345 344 342 341 343 343 343 343 346 347 346 345 344 342 341 340 339 335 333 333 333 333 333 333 332 331 328 326
350 355 354 352 352 351 350 349 349 350 349 349 350 350 350 350 353 351 349 348 349 348 349 348 348 347 346 346 346 345 344 344 344 344 344 343 343 343 344 342 342 342 341 341 340 339 340 339 337 337 338 339 337 339 341 339 339 341 342 341 340 341 341 342 344 344 345 345 345 345 344 342 341 340 337 335 335 334 334 334 335 335 335 331 327
350 355 357 355 353 351 351 350 350 352 351 350 351 351 352 353 354 352 350 350 349 348 347 347 347 347 347 347 346 346 349 354 355 354 351 351 344 342 343 344 343 342 341 341 342 341 338 337 336 337 337 338 338 337 337 336 337 340 341 340 340 342 342 341 342 344 345 344 344 344 343 342 340 339 339 337 337 336 336 337 337 337 337 333 329
348 355 355 354 354 352 351 351 351 353 353 354 358 363 361 355 355 355 354 352 351 349 349 347 346 346 346 346 350 355 356 358 358 358 357 356 354 349 345 345 345 344 343 341 341 340 336 335 336 335 335 336 338 338 337 338 339 341 340 340 339 341 341 341 342 343 345 344 342 341 343 343 341 339 339 337 338 338 336 336 336 336 334 331 330
352 353 354 352 352 353 352 352 351 354 355 358 357 342 345 351 356 352 353 353 352 350 349 347 346 346 345 345 346 351 357 359 359 356 355 356 358 357 355 354 351 346 342 341 342 338 337 337 336 335 335 335 338 340 339 339 340 339 339 339 339 339 338 337 336 340 344 345 342 341 342 341 341 338 339 338 339 338 337 336 335 333 332 331 330
352 353 351 352 352 351 351 352 351 352 353 357 341 345 347 347 354 354 352 352 353 351 349 348 348 347 346 345 345 346 348 349 348 348 353 355 354 355 355 355 353 351 349 345 342 338 337 335 335 336 337 336 338 339 340 340 340 340 340 339 338 337 336 336 337 336 338 343 342 339 340 339 340 339 338 339 339 339 338 335 332 331 331 330 330
353 351 349 350 351 350 346 345 345 345 346 349 341 343 341 341 345 354 351 351 350 351 352 351 349 348 347 346 345 346 346 354 355 351 347 348 354 355 354 352 347 344 339 340 343 343 340 337 336 336 338 339 338 340 342 341 341 339 339 338 338 338 338 338 339 339 338 341 340 339 338 340 337 336 336 338 339 340 339 335 333 331 329 329 328
349 349 349 347 349 347 345 344 343 343 344 346 339 340 340 340 341 348 348 349 349 349 350 351 351 350 347 346 345 345 345 345 345 346 346 346 345 345 344 344 344 347 347 342 340 341 343 340 339 338 341 342 341 340 342 342 340 338 338 337 338 337 338 339 342 342 340 344 340 338 336 339 338 337 336 339 340 340 339 335 331 330 329 328 328
345 341 342 344 345 345 345 346 346 346 348 343 336 337 336 335 338 350 346 347 348 348 348 349 349 349 347 346 345 344 343 343 344 348 346 345 343 342 342 342 342 343 344 344 343 342 341 342 342 342 342 343 342 342 342 343 342 342 341 339 339 340 341 342 341 341 341 343 342 339 333 339 341 338 338 340 341 340 340 333 329 328 328 327 326
346 346 346 343 342 342 344 344 344 342 346 338 333 335 335 334 340 348 345 345 346 347 347 347 347 346 346 344 343 343 342 343 349 348 349 348 344 344 343 344 343 343 342 345 341 342 346 344 345 344 345 346 343 344 345 345 344 343 344 344 342 339 337 335 334 338 338 341 342 340 336 338 341 339 340 341 341 340 341 339 333 328 327 327 326
345 344 346 344 344 344 344 344 343 342 346 337 328 330 330 330 338 342 343 346 344 344 344 345 345 346 345 344 342 342 344 346 341 330 336 349 345 345 344 342 340 336 336 338 334 334 332 329 328 329 329 328 327 327 326 327 331 338 338 335 333 336 333 331 332 334 335 338 337 340 338 335 339 339 338 338 337 338 339 339 339 330 326 326 325
343 345 344 343 342 343 345 341 341 342 342 341 329 326 324 328 340 343 341 341 342 342 344 345 344 343 345 352 351 348 346 340 332 329 332 343 340 339 337 332 328 327 328 330 330 331 332 330 329 327 327 327 327 327 329 328 327 330 335 332 335 335 332 332 330 333 335 337 338 339 336 335 338 336 336 336 332 334 337 337 337 334 326 324 323
343 344 347 344 344 342 343 343 353 346 342 342 325 324 324 327 338 341 340 338 337 337 341 343 343 342 341 345 350 347 341 337 323 325 329 338 330 329 326 325 324 323 324 322 322 323 324 326 326 329 331 334 335 333 337 343 339 335 335 337 337 334 332 333 333 332 330 332 335 337 334 335 336 337 336 330 327 330 324 323 324 325 326 327 326
Wind_Speed
5 4 3 4 4 4 4 4 4 4 3 4 4 5 5 4 1 1 2 3 3 2 3 3 3 3 4 5 1 2 3 5 4 2 0 2 2 3 6 7 6 5 5 5 5 6 5 5 6 6 6 5 5 7 8 8 6 6 6 6 6 5 5 4 4 5 5 6 5 5 6 6 5 7 7 8 8 7 8 7 5 7 7 7 7
4 4 4 4 4 5 5 5 4 3 4 5 4 4 5 3 1 1 1 1 3 4 3 3 3 3 4 5 1 3 3 5 4 2 2 3 1 2 6 6 6 5 5 5 5 5 6 6 6 6 7 6 7 8 7 6 6 5 6 5 5 4 5 5 4 4 5 6 6 6 6 6 7 8 9 9 8 8 7 7 8 8 8 7 7
5 5 4 4 5 5 5 4 4 4 4 5 4 4 4 3 1 4 4 2 5 3 4 5 4 5 5 4 1 4 4 5 4 4 3 4 2 2 3 6 6 6 6 5 5 5 6 6 6 7 7 8 8 7 6 6 6 6 6 5 4 5 6 6 5 5 4 6 7 6 7 8 8 8 9 9 8 8 7 7 7 8 8 8 7
5 5 4 4 5 5 5 4 4 3 4 5 5 5 3 3 4 3 1 1 2 3 3 3 5 6 4 4 2 5 5 5 5 5 4 4 3 2 2 3 7 7 6 6 5 5 5 5 6 6 6 7 7 6 6 6 6 6 5 4 6 7 7 7 6 6 7 7 7 6 7 8 8 8 8 8 8 9 7 7 7 8 8 8 8
5 5 5 5 5 5 5 5 4 4 4 6 6 3 2 4 5 2 1 1 2 3 3 6 5 6 4 3 3 5 6 6 5 5 5 4 4 3 3 3 3 7 7 6 5 5 5 5 5 5 6 6 6 6 6 6 6 6 5 4 6 8 7 7 8 7 7 7 8 7 9 8 9 8 8 9 9 7 8 8 8 8 8 8 8
5 5 4 4 5 5 6 5 5 6 5 5 4 2 4 6 4 1 4 2 3 4 4 3 3 2 0 0 5 6 7 6 5 5 5 5 4 4 4 3 4 3 4 7 6 5 5 5 4 5 5 5 5 5 5 5 5 5 5 4 7 7 7 7 8 8 7 8 8 9 9 9 8 9 9 9 9 7 8 8 8 8 8 8 8
5 5 5 5 5 6 6 6 4 4 5 4 4 2 4 5 3 3 2 4 2 4 4 4 5 3 3 1 7 7 6 6 5 5 5 5 5 5 4 4 3 3 3 4 5 6 5 5 5 4 5 4 4 5 5 5 5 5 5 5 6 7 7 7 7 7 8 9 9 9 9 9 10 9 8 8 9 8 7 8 8 8 8 8 8
5 5 5 5 6 6 7 5 4 4 4 3 3 4 4 4 2 1 2 1 4 6 6 6 5 4 2 3 5 6 7 5 6 6 6 5 5 5 4 4 3 3 4 3 3 3 6 5 5 5 4 4 3 4 4 4 5 5 5 5 6 7 7 7 7 7 8 9 9 9 9 10 9 9 8 8 8 8 8 8 8 8 9 9 8
6 6 6 6 6 6 6 5 4 5 4 3 3 5 3 3 3 1 1 3 4 2 3 2 4 3 3 3 4 4 6 6 6 5 5 6 6 5 5 5 4 5 4 4 3 3 6 7 6 6 5 4 3 3 4 5 5 5 5 5 6 6 7 6 7 6 7 8 9 9 9 9 9 9 9 8 8 8 8 7 7 8 7 8 8
6 6 6 6 6 6 5 5 5 5 4 3 5 4 2 2 4 3 1 3 3 1 0 3 5 4 3 3 2 3 4 4 4 5 6 6 6 6 6 6 5 5 4 4 4 3 3 6 7 6 6 5 4 3 3 4 4 5 5 5 5 6 6 6 6 6 6 7 9 9 9 9 9 9 8 8 8 7 7 7 7 7 6 6 6
6 6 6 6 5 6 6 5 5 4 3 3 5 3 3 2 2 4 1 3 4 3 5 4 4 3 2 1 2 3 2 2 4 5 5 6 6 6 5 5 5 4 4 4 3 3 3 3 3 3 3 6 5 4 4 4 5 5 5 5 5 5 5 6 6 5 6 7 8 8 9 9 9 8 8 8 7 7 7 7 7 6 5 5 5
6 6 6 6 5 6 6 4 3 3 4 4 5 4 4 3 4 4 4 1 1 2 4 4 3 3 1 1 1 1 1 2 3 4 3 4 5 5 5 4 5 5 5 4 4 3 4 3 3 4 2 5 7 5 5 5 5 5 5 5 5 4 6 5 6 6 6 7 7 8 8 8 8 8 7 7 6 7 6 6 6 5 5 4 4
6 6 6 6 5 4 4 4 3 4 4 6 4 3 3 3 3 3 3 1 1 1 2 5 6 2 1 2 1 0 1 2 3 3 4 3 4 4 4 4 4 6 6 5 5 4 4 4 4 4 4 2 4 6 6 6 6 6 5 5 5 5 5 6 6 6 6 6 7 7 7 7 7 7 7 7 6 6 6 6 5 5 5 4 5
6 5 5 5 4 4 4 5 3 4 4 3 1 2 2 4 3 0 1 1 1 1 3 3 0 3 3 1 3 3 1 1 0 1 1 2 3 3 4 5 4 4 5 5 5 5 5 5 4 5 4 3 2 2 3 4 4 7 6 7 6 6 6 6 6 6 6 6 6 6 7 7 7 7 7 7 6 7 7 7 7 7 7 7 7
5 4 4 4 4 4 5 3 3 3 2 0 1 1 1 4 3 2 1 2 1 1 3 3 3 2 1 4 0 1 2 1 3 3 2 3 2 2 2 2 4 4 5 5 5 5 5 5 5 5 5 4 4 3 2 3 4 7 8 8 7 7 6 6 6 6 6 6 6 6 6 7 7 6 7 7 7 8 9 9 9 9 9 9 10
5 5 4 4 4 5 5 3 2 2 2 1 1 1 0 1 1 2 2 1 3 2 1 3 3 5 1 2 2 3 1 5 7 4 2 4 2 2 1 2 3 3 3 5 5 5 5 4 5 6 5 5 5 4 4 3 7 9 9 8 8 8 7 7 7 7 7 6 6 6 6 6 6 7 7 8 8 9 9 9 9 10 10 10 10
5 5 4 5 4 4 3 4 3 1 1 2 2 3 2 1 1 2 2 1 1 1 2 1 3 2 5 3 1 0 3 5 1 4 2 3 3 3 3 3 3 3 4 4 4 4 4 4 4 5 5 5 5 5 4 5 4 4 6 8 9 9 8 8 7 7 7 7 7 6 5 6 6 6 6 7 7 8 8 8 9 9 9 10 10
4 4 4 4 4 4 3 3 2 2 1 2 2 1 0 0 2 2 1 2 1 0 2 1 2 3 4 1 2 1 2 2 1 3 1 3 2 3 4 4 2 3 3 2 4 5 4 5 4 5 5 5 5 5 5 5 4 4 5 6 11 10 9 9 8 8 8 7 7 7 7 6 6 5 6 7 7 7 7 7 7 8 8 8 9
5 4 4 4 4 4 3 3 2 2 0 1 2 3 2 2 1 1 3 2 2 1 4 5 3 2 2 0 1 1 3 3 3 1 2 2 2 3 4 4 3 3 4 3 4 4 5 5 6 5 5 5 5 6 5 6 7 6 9 9 12 11 10 10 10 9 8 8 7 7 7 7 6 6 6 6 6 6 6 6 6 6 6 7 7
5 5 5 5 4 5 3 3 2 0 0 1 3 3 1 2 1 1 1 0 2 3 5 3 3 2 1 1 3 3 1 2 3 4 3 1 2 0 2 4 3 5 5 4 5 5 6 5 6 6 5 5 5 6 6 6 5 6 6 13 12 12 11 11 11 10 9 8 8 8 7 7 7 6 6 6 6 6 6 6 6 6 6 6 6
6 6 5 5 5 5 4 3 3 1 0 0 2 2 3 3 3 3 4 4 4 4 3 6 3 3 1 1 1 2 3 1 2 1 1 1 3 3 3 1 2 5 6 6 5 5 6 6 6 5 5 5 5 6 6 6 6 6 7 13 13 13 12 12 12 11 10 10 9 9 8 7 7 7 6 6 6 6 6 6 6 6 7 6 6
6 5 5 5 5 5 4 4 3 2 1 1 1 2 2 2 3 4 4 4 2 4 5 4 3 1 1 1 1 2 4 3 1 2 1 1 2 3 4 4 3 6 4 7 8 6 6 6 6 5 5 5 5 6 6 7 6 6 8 14 14 14 13 13 12 12 11 10 10 10 9 8 8 8 7 7 6 5 6 6 8 8 7 7 6
6 6 5 5 5 4 5 4 4 2 1 1 1 1 3 3 3 3 4 4 3 4 2 2 1 0 0 1 1 1 2 2 5 4 2 3 2 2 2 5 7 5 4 7 6 7 6 5 6 6 6 6 6 6 6 7 8 9 13 14 15 14 14 13 13 13 12 12 11 10 10 9 9 9 9 8 8 8 8 7 6 6 6 6 7
5 5 5 5 5 5 5 4 4 3 3 3 2 2 3 1 0 2 4 5 4 4 3 3 2 2 2 1 2 2 2 3 4 4 4 4 2 3 4 1 2 4 5 2 5 6 6 6 6 6 6 6 6 6 7 7 8 14 11 14 15 15 14 14 14 14 14 13 12 12 11 11 10 10 10 9 9 9 8 8 9 8 8 8 8
5 5 5 5 5 6 5 5 4 4 3 3 4 3 3 3 2 2 3 4 5 4 5 5 5 4 4 2 1 1 3 4 3 4 3 2 3 5 3 3 5 3 2 2 3 3 5 6 6 6 7 6 5 6 6 7 7 12 14 10 16 14 15 15 15 15 15 14 14 13 13 13 13 12 11 11 11 10 9 8 8 8 9 9 9
7 6 6 6 5 6 6 6 5 5 4 4 4 4 4 4 3 3 3 4 4 4 5 4 4 4 3 3 3 3 4 4 3 2 3 2 3 3 3 1 1 4 2 2 2 3 3 6 6 7 7 7 6 6 6 7 7 13 16 10 12 14 14 15 16 17 17 16 16 15 15 15 15 14 14 13 12 11 10 10 10 10 10 10 10
7 7 6 6 6 6 7 6 6 5 5 4 6 5 4 4 3 3 2 2 3 4 4 4 4 4 3 4 5 3 4 5 3 4 3 3 3 2 1 6 4 1 2 1 1 5 6 2 5 6 7 7 7 7 7 7 9 14 15 9 8 15 15 16 16 18 18 18 17 17 16 16 16 16 15 15 14 13 12 12 11 11 11 11 11
6 6 7 6 6 7 7 7 7 7 6 6 6 6 6 5 4 3 3 2 2 2 4 3 3 3 3 3 2 4 4 4 3 3 3 4 3 0 2 2 4 6 2 3 2 5 3 3 2 6 7 7 7 7 7 9 8 14 16 8 8 10 16 17 17 17 17 18 18 17 17 17 16 16 16 15 15 14 14 14 13 13 13 13 12
7 6 7 8 8 8 8 8 8 7 8 7 7 7 6 6 6 4 5 3 3 3 3 3 3 2 3 3 3 4 4 3 2 2 2 2 1 3 5 6 5 4 1 2 3 5 4 5 4 5 8 7 7 6 7 8 9 11 9 9 9 8 14 17 17 16 15 16 16 17 17 17 17 17 16 16 15 15 15 15 15 14 14 14 14
6 7 7 8 8 9 8 9 9 8 9 8 7 7 6 6 6 5 5 4 4 3 3 3 3 2 3 3 3 4 3 2 3 3 3 3 4 3 3 3 2 3 3 3 6 5 5 3 5 5 5 8 7 6 7 8 11 13 9 9 9 9 14 17 17 16 16 15 16 16 17 17 17 17 17 17 16 16 16 16 15 16 15 14 15
6 5 5 6 7 7 8 9 9 9 9 8 7 7 6 6 6 6 5 4 4 4 4 4 3 3 3 3 3 4 3 3 3 4 3 3 4 4 1 7 6 6 6 4 4 5 5 6 7 7 5 7 7 6 6 7 9 13 9 8 9 10 15 14 17 17 16 16 16 16 17 18 18 18 17 17 17 17 17 17 17 17 17 16 16
5 5 6 6 5 6 4 4 8 9 8 7 5 6 6 7 7 6 6 5 5 5 4 4 3 3 3 3 4 4 4 4 4 4 4 4 3 4 3 2 2 2 4 6 7 9 4 4 4 5 5 5 5 6 7 6 6 12 8 9 9 7 10 8 15 17 17 16 16 16 16 17 18 19 18 18 19 19 19 19 18 18 18 18 18
4 4 4 5 6 5 7 1 5 3 3 4 3 4 6 7 7 7 6 6 6 6 5 5 4 4 5 5 5 5 3 3 4 3 3 4 4 4 4 0 1 2 3 5 5 8 5 3 4 4 4 3 3 6 7 6 5 6 8 7 7 8 8 8 8 15 17 17 17 17 17 17 17 19 20 21 20 20 20 20 20 18 18 18 18
5 6 6 7 6 8 11 13 11 10 9 7 9 8 7 7 7 7 7 6 6 6 5 5 6 5 5 6 6 6 4 4 3 3 3 3 3 4 2 4 4 5 3 4 6 4 6 3 2 1 1 3 5 3 7 8 7 5 7 7 6 8 8 8 7 8 17 18 18 18 18 18 18 19 19 21 21 21 21 20 20 17 17 17 16
5 6 5 3 4 5 4 7 7 8 8 7 6 6 6 6 7 6 6 7 7 7 6 7 7 6 6 6 7 6 5 4 5 5 3 3 2 1 0 3 3 1 1 1 1 1 4 5 3 2 3 3 6 6 6 6 7 6 7 8 9 8 8 8 7 7 12 17 19 19 19 19 19 19 19 19 19 19 19 19 18 16 16 16 16
5 5 5 5 5 4 4 4 3 3 3 3 3 5 6 7 7 7 6 6 7 8 8 7 7 6 6 6 6 4 3 3 4 3 3 2 1 1 1 1 2 2 3 4 4 3 1 2 3 2 6 3 4 3 3 4 5 6 7 7 5 7 8 7 7 8 10 17 19 20 19 19 19 20 19 19 18 19 18 18 17 16 16 17 15
5 5 4 4 5 4 5 5 4 3 3 2 3 3 3 4 6 6 7 7 7 7 7 7 7 7 7 7 6 4 3 5 4 4 3 3 3 2 3 3 3 1 0 1 2 3 4 6 5 1 1 3 5 4 1 4 4 5 5 7 8 8 6 6 6 9 13 15 17 19 19 20 21 21 21 20 19 19 19 18 18 17 17 18 17
6 5 5 4 5 5 4 5 4 4 3 2 2 3 4 4 4 4 4 5 7 7 6 5 4 4 5 4 4 4 4 5 6 5 4 5 4 4 5 4 2 1 1 1 1 2 2 3 1 5 1 3 7 6 2 3 4 5 6 8 6 6 7 8 9 8 7 7 7 10 14 17 20 22 21 21 20 19 19 19 19 19 19 19 20
5 1 3 4 4 5 5 4 4 4 4 3 3 3 4 4 4 4 4 4 4 4 4 4 4 4 4 4 4 5 5 5 6 6 5 4 4 5 4 3 4 3 3 2 1 0 1 2 2 3 3 6 6 7 5 1 4 5 8 8 8 7 6 8 9 8 7 8 10 12 11 12 15 15 18 20 20 20 20 20 20 20 20 20 19
4 7 5 5 5 4 4 4 4 3 4 4 4 4 4 4 4 5 5 5 5 4 3 3 3 4 4 5 5 5 6 6 6 6 5 5 3 5 4 3 2 3 3 2 2 0 3 1 5 8 5 4 4 3 1 2 3 6 7 6 9 9 7 6 9 9 6 5 7 6 8 10 12 15 18 17 18 20 20 20 20 19 20 20 19
9 7 5 5 4 3 2 3 4 4 5 5 4 4 4 4 5 5 5 5 5 4 4 4 4 4 4 5 6 6 7 9 11 9 8 7 5 5 4 4 3 4 3 2 3 2 3 6 6 4 5 6 7 7 7 5 8 10 4 3 7 8 7 7 7 7 8 8 6 6 6 7 9 9 8 8 11 16 18 21 18 22 22 21 20
10 5 3 2 2 3 3 3 3 3 3 3 3 6 3 2 3 3 3 4 4 5 5 5 4 4 4 5 5 10 11 12 12 12 11 10 9 7 5 5 4 4 4 3 3 3 5 8 7 4 6 8 9 8 8 7 7 6 7 7 8 9 5 8 9 6 5 6 7 7 8 7 8 9 9 11 11 14 13 13 14 17 20 21 20
6 3 2 3 3 3 2 2 2 2 2 1 4 4 2 1 1 2 3 3 3 4 4 4 5 5 5 5 4 6 8 9 7 9 10 12 10 11 10 10 8 6 6 5 5 6 7 7 6 6 7 10 11 8 8 8 6 8 8 7 7 6 6 7 10 4 2 6 6 7 7 6 7 10 9 11 11 10 11 13 20 24 22 21 23
1 1 2 1 1 0 1 2 3 1 1 3 4 2 0 1 2 2 2 3 3 4 4 5 5 5 5 5 5 4 5 6 4 5 8 9 8 9 9 10 10 8 4 4 4 5 7 8 7 8 7 10 10 7 7 6 7 6 7 7 8 7 7 7 7 8 2 3 5 3 6 4 7 9 10 9 9 9 12 15 19 20 21 24 23
1 1 1 1 0 1 4 4 4 4 4 5 2 1 2 1 2 3 2 3 4 4 4 5 5 5 5 5 5 5 5 9 6 3 5 6 8 7 5 6 8 3 8 7 9 11 8 7 6 7 9 9 9 9 6 4 3 6 7 8 7 6 6 8 8 7 5 2 2 5 7 5 6 7 9 9 8 9 11 15 19 20 18 20 19
2 1 3 1 0 2 3 3 2 1 1 2 7 9 4 3 2 1 1 2 2 3 3 4 4 5 5 5 5 5 4 3 3 3 3 3 3 2 3 1 4 8 11 9 14 18 11 7 7 9 8 6 9 5 3 3 4 6 7 9 7 8 8 8 7 6 3 3 5 5 7 5 6 7 10 10 8 9 10 13 18 18 18 19 21
2 3 2 3 3 3 3 2 0 1 2 4 7 10 7 6 5 4 2 3 3 3 3 4 4 4 5 5 4 4 3 2 2 3 3 2 2 2 3 2 2 4 3 4 7 6 7 8 8 9 9 7 7 7 6 6 7 8 8 9 9 8 7 6 5 4 6 5 6 4 7 5 5 7 9 8 7 8 8 11 15 16 17 19 22
5 5 4 2 3 2 3 3 3 3 4 7 7 6 5 5 3 2 2 2 3 3 3 3 3 2 3 4 4 3 3 2 1 3 3 2 3 3 3 3 1 2 3 6 12 12 7 3 5 6 6 7 7 6 5 5 6 6 8 8 5 5 6 7 8 5 6 4 5 7 8 7 3 8 9 5 6 8 7 7 11 15 17 18 19
4 2 3 2 3 4 3 3 3 3 2 0 2 5 6 5 2 2 2 2 2 3 3 3 3 2 2 2 2 3 2 2 4 2 3 3 2 2 2 1 1 1 1 3 4 1 3 5 7 8 11 12 13 12 12 11 9 7 6 6 6 5 7 8 7 4 6 5 3 6 8 9 5 6 8 6 6 7 6 7 7 10 16 17 17
3 3 2 2 3 3 3 3 2 1 0 1 4 6 4 2 3 2 2 2 3 3 4 3 3 2 3 8 5 4 3 2 5 3 2 1 1 1 1 1 3 3 3 1 2 4 7 8 8 8 10 11 11 11 11 12 12 7 6 8 7 4 6 6 7 6 5 3 5 3 4 5 4 3 6 6 3 4 6 6 4 4 8 12 16
2 2 2 2 1 1 1 1 4 3 3 2 1 1 1 2 3 2 2 2 2 2 3 4 4 2 0 3 4 2 3 4 6 3 1 0 1 1 1 1 3 4 5 2 3 4 4 5 4 4 3 4 3 2 3 8 3 5 6 7 5 3 4 3 3 3 2 1 5 8 5 2 3 4 4 3 3 3 1 2 3 3 1 3 7
Wind_Direction
213 218 210 228 237 235 230 232 227 243 254 260 259 274 268 260 27 22 230 231 213 224 218 226 209 232 256 281 175 133 148 118 109 96 224 87 64 99 103 105 103 102 101 98 93 90 91 100 100 108 107 97 96 84 71 66 59 56 55 53 49 46 50 45 49 57 65 74 85 95 112 128 128 128 132 126 122 122 108 99 97 85 82 97 110
212 209 210 222 224 232 230 234 234 229 238 258 252 261 265 279 83 222 333 195 205 226 219 224 218 219 239 253 240 127 154 127 127 156 203 116 98 117 120 116 114 111 104 90 88 85 89 85 87 101 109 107 90 74 70 66 61 61 62 56 53 59 70 75 77 73 68 74 91 99 111 109 118 117 114 114 114 104 110 108 91 83 82 78 102
200 212 218 221 226 231 238 241 246 234 238 253 261 253 263 265 217 199 173 214 225 209 208 219 213 223 223 229 186 124 141 126 141 168 171 135 127 144 139 132 121 109 101 101 93 90 84 82 86 88 86 85 83 81 76 72 63 60 58 56 58 71 70 70 74 80 84 79 83 99 109 112 107 111 111 113 117 112 103 95 92 87 82 81 82
196 208 213 218 225 232 242 244 247 254 241 249 251 239 236 255 244 232 190 158 259 161 210 203 254 242 224 221 173 135 140 143 160 180 159 145 159 161 152 146 124 123 117 109 102 98 92 89 87 83 86 86 86 85 80 75 70 63 55 46 68 67 68 68 66 67 68 80 92 101 102 104 108 106 109 108 102 100 98 92 86 83 84 86 84
199 206 215 214 229 233 240 235 236 242 231 234 235 241 269 260 249 219 126 140 254 204 180 220 207 214 208 222 142 143 147 159 171 169 160 152 158 167 175 152 150 135 129 122 121 113 103 98 92 92 93 89 92 89 84 78 74 67 56 44 63 65 65 69 72 74 82 88 97 102 110 108 105 109 111 107 102 100 98 92 93 89 83 77 80
194 207 209 218 235 239 240 232 224 231 226 228 230 215 244 257 263 304 82 122 192 215 209 261 266 278 49 154 145 148 159 174 170 167 159 158 168 177 169 160 149 142 135 139 138 133 120 110 109 107 95 101 100 96 91 85 78 71 65 56 66 72 72 72 78 83 89 94 97 103 109 109 113 118 112 107 102 98 96 99 97 94 87 81 78
194 193 210 213 225 239 244 242 213 222 224 227 218 225 242 262 308 4 69 107 204 221 221 208 243 237 185 194 141 159 171 173 166 164 167 166 171 179 171 160 158 141 133 137 138 138 128 118 118 117 120 112 107 101 95 88 81 76 74 64 66 70 70 74 80 91 96 103 104 106 111 117 111 105 106 100 104 100 92 90 89 90 90 87 81
193 196 209 209 216 225 237 249 235 232 230 224 214 230 245 276 275 231 1 346 203 209 204 202 216 215 156 225 149 156 169 161 171 173 173 167 180 175 172 163 159 149 149 134 139 143 137 130 127 128 128 120 106 104 98 91 84 79 75 68 67 73 72 77 82 90 102 107 112 111 109 103 107 106 103 100 100 104 102 100 99 95 90 83 81
195 202 204 210 217 227 238 234 223 228 217 216 228 234 243 280 266 212 159 258 300 322 278 185 198 201 175 220 169 143 160 173 173 180 165 177 179 179 172 173 166 169 150 157 159 156 146 145 141 139 139 141 125 107 103 95 88 80 73 68 73 76 74 78 89 98 105 106 106 104 104 107 107 110 108 110 112 111 106 100 90 84 86 94 93
196 202 208 213 219 227 237 225 211 216 215 222 244 248 247 264 304 301 177 202 258 103 286 135 172 174 186 197 196 153 157 177 179 176 170 173 177 183 185 175 170 166 162 159 166 154 150 151 150 153 151 146 141 127 118 109 103 91 85 80 72 73 82 86 96 102 113 115 116 118 116 113 110 108 108 109 108 103 100 97 96 95 95 95 99
198 200 209 217 223 234 240 228 207 198 207 234 254 258 244 225 250 287 277 206 174 201 160 150 142 160 182 193 185 202 159 158 196 180 182 175 177 183 174 170 165 152 160 166 163 163 152 150 146 141 160 155 152 151 142 133 120 114 103 93 92 89 93 94 104 108 112 115 115 112 113 114 109 107 110 106 104 106 105 103 100 98 96 91 95
205 198 213 219 225 234 245 236 207 186 206 227 242 231 214 241 267 245 252 253 107 154 104 104 96 98 103 354 286 202 180 131 188 194 185 172 177 168 166 166 163 159 164 172 170 174 164 160 166 163 183 169 164 160 161 151 139 131 129 122 111 108 105 104 92 104 109 111 113 113 111 110 109 110 108 111 115 114 107 104 104 101 99 102 103
210 199 207 222 226 240 255 277 245 200 202 218 226 208 212 212 233 225 192 168 50 139 117 122 119 93 354 14 15 61 138 125 176 185 177 167 171 164 156 145 157 164 170 165 177 174 178 176 177 175 179 191 173 169 170 166 157 149 138 128 123 117 115 110 112 105 110 110 112 116 119 119 116 121 122 123 120 121 120 118 120 116 110 106 104
206 208 213 216 237 251 259 265 233 199 209 216 159 197 190 219 204 276 5 121 139 188 199 91 27 166 156 5 6 7 29 41 258 278 251 200 184 171 175 158 149 157 164 169 178 182 186 188 178 176 177 179 175 178 180 175 168 163 151 144 142 137 129 126 124 121 116 116 114 120 122 119 120 120 122 120 125 125 121 118 112 112 111 107 105
202 204 214 221 230 244 258 249 216 197 201 54 199 244 196 213 195 153 355 11 93 250 173 170 189 98 99 94 142 119 313 342 303 259 215 244 180 202 181 164 166 176 173 176 179 185 193 187 180 178 178 172 177 180 189 179 198 175 167 159 153 150 141 133 125 124 125 121 123 121 123 123 122 119 118 124 123 118 114 113 110 109 110 112 114
199 204 211 225 233 243 263 281 223 211 150 135 231 211 27 214 178 91 108 24 17 323 315 148 125 127 192 186 203 123 296 272 237 278 187 235 217 214 186 202 181 173 177 185 194 188 195 182 181 180 179 176 178 188 187 200 197 183 179 167 164 159 155 147 145 143 138 132 126 126 125 129 129 124 122 124 124 123 124 120 117 117 116 115 115
202 201 203 218 237 247 264 277 292 259 134 143 185 216 213 183 179 112 115 139 37 317 319 349 213 196 136 106 25 24 223 247 173 277 200 224 241 219 211 221 199 208 201 202 177 190 190 191 189 188 182 181 180 191 197 201 204 189 185 179 178 170 163 160 154 150 146 144 142 136 135 134 133 133 131 129 129 129 131 133 132 127 126 123 117
203 205 208 211 233 240 240 254 250 266 159 180 194 197 326 259 195 170 148 143 152 201 294 277 259 207 172 176 161 177 216 257 113 276 313 234 237 208 233 238 199 205 233 219 184 192 194 199 196 200 193 187 185 190 198 198 201 193 186 197 182 178 172 167 166 161 159 156 155 152 152 149 145 146 146 141 141 141 138 139 140 142 142 137 129
204 204 210 221 233 238 230 224 237 225 186 158 184 193 200 222 256 154 228 137 120 249 255 272 340 299 202 185 135 175 156 111 233 68 337 315 262 217 250 252 245 235 228 220 204 193 206 198 202 205 201 196 191 193 194 196 197 196 194 197 188 185 181 174 172 170 170 168 168 165 167 168 168 162 155 155 148 151 149 146 143 141 144 138 133
198 204 210 217 229 243 227 217 198 221 115 192 217 230 222 298 353 268 320 143 158 198 258 252 217 269 340 18 14 344 57 218 191 172 176 209 294 330 238 226 242 249 237 220 206 209 210 205 202 202 202 202 195 198 194 194 193 196 201 197 191 189 186 182 179 178 178 178 183 179 181 179 176 174 171 161 166 157 157 158 153 147 144 140 139
196 201 209 212 220 232 231 225 192 190 123 151 268 231 213 250 296 310 277 257 193 207 210 247 200 219 334 343 14 17 337 331 229 138 176 150 270 240 264 348 252 258 247 238 221 207 212 210 208 198 202 205 199 199 195 194 193 194 205 199 195 193 189 188 183 182 181 183 186 190 190 181 183 183 182 182 174 175 175 175 172 166 158 158 162
202 204 206 210 218 224 223 220 217 191 195 175 197 275 269 248 238 242 256 262 227 169 192 199 195 189 164 159 52 343 11 350 16 17 9 157 210 232 220 194 228 260 230 238 236 223 209 199 204 205 206 213 203 197 193 196 195 194 205 201 197 194 192 191 189 186 187 188 192 193 191 187 184 183 178 180 179 181 195 197 184 180 171 166 168
194 206 207 205 212 216 216 218 213 203 213 238 252 230 251 251 259 257 254 229 217 200 176 188 176 279 224 162 197 187 206 247 280 294 283 287 330 283 242 200 207 244 262 227 227 228 215 197 199 208 205 213 207 196 196 200 197 201 201 201 199 196 194 194 192 192 192 193 195 194 194 193 190 187 186 191 187 187 188 191 192 193 191 191 193
196 196 211 203 202 207 211 214 215 208 216 224 233 237 254 240 227 223 246 244 237 203 193 204 219 230 293 258 216 202 201 218 256 267 276 264 198 240 221 223 287 251 249 179 227 215 210 212 212 211 210 208 205 196 197 195 203 204 201 202 200 198 195 196 195 196 196 196 196 198 197 197 196 192 192 196 200 197 198 194 196 196 196 197 190
206 197 206 197 190 191 195 195 212 219 221 218 236 230 240 228 205 244 238 235 239 215 193 211 201 215 239 246 225 238 243 233 238 260 263 240 257 278 264 190 197 244 283 136 214 225 207 219 213 217 219 214 208 196 195 196 200 205 200 203 200 199 197 198 198 199 199 198 198 198 199 199 199 198 201 199 206 209 207 213 211 199 202 202 197
196 202 199 191 187 192 190 195 200 207 214 223 236 241 232 237 217 204 207 226 225 240 227 217 205 208 197 237 252 246 257 249 243 244 261 269 269 232 285 319 247 243 260 196 222 168 255 225 215 214 217 218 213 199 196 199 201 206 200 194 201 200 199 201 201 201 201 200 199 199 201 201 202 203 204 203 203 206 206 207 211 200 203 203 201
199 202 200 193 196 197 199 200 203 206 213 222 233 242 245 246 213 185 206 221 227 223 237 239 222 217 215 213 240 255 264 271 252 254 252 238 208 227 240 296 323 330 287 315 308 223 224 247 204 207 213 211 210 201 198 199 204 203 201 192 200 201 200 203 204 203 202 202 201 202 204 205 205 205 205 204 203 203 202 205 206 198 203 203 201
205 199 202 195 202 203 204 208 206 207 210 215 223 229 238 238 233 218 218 193 170 207 226 218 252 257 242 244 231 258 262 278 281 275 266 256 235 130 225 227 264 296 325 288 270 259 229 230 255 217 207 207 210 205 195 195 204 205 200 193 197 203 204 205 206 205 204 204 204 204 206 207 207 208 208 206 206 204 203 204 204 201 204 206 201
191 195 194 200 203 203 206 211 210 209 209 212 215 219 220 226 229 228 232 217 178 208 241 261 261 242 242 238 221 232 256 253 271 279 284 295 251 176 190 226 200 232 319 307 274 250 278 205 216 238 207 206 206 203 194 205 206 198 199 196 198 203 207 207 207 207 206 207 206 206 207 209 208 209 209 209 209 207 207 206 204 210 208 208 210
193 193 189 194 199 199 202 209 210 209 211 213 212 214 211 219 224 223 225 213 219 221 214 209 229 222 240 259 247 246 236 231 259 281 301 301 286 214 228 314 204 180 179 222 269 223 246 252 212 241 216 212 203 200 202 207 210 198 199 196 201 207 208 207 207 207 208 208 207 206 208 212 212 210 210 211 210 208 209 208 208 212 212 212 217
192 207 213 200 195 200 198 204 204 206 210 215 214 217 211 216 219 223 228 216 218 226 227 212 236 241 265 274 276 268 250 251 264 274 275 277 274 275 183 170 187 183 183 212 257 275 205 224 236 234 221 216 202 199 207 211 210 202 198 197 207 207 207 210 209 209 209 210 210 209 208 211 213 214 213 213 211 210 210 210 212 212 213 211 217
192 198 211 215 194 194 189 220 204 202 202 212 217 230 218 215 209 211 220 209 214 220 228 217 217 213 224 243 256 258 263 266 274 278 281 279 264 248 244 221 212 201 214 203 221 262 245 237 277 271 236 222 204 199 215 219 214 205 202 202 210 191 209 217 215 212 211 211 212 212 212 212 212 214 215 214 213 212 212 212 213 212 213 212 212
190 189 201 215 193 159 117 269 315 20 267 199 222 240 227 223 217 216 218 209 213 223 220 230 225 225 230 236 240 241 242 252 257 264 274 276 283 272 250 193 9 263 211 215 220 250 284 236 210 228 238 196 228 218 217 216 213 212 211 211 209 208 211 215 215 215 214 214 213 213 213 214 214 214 214 213 213 214 213 213 214 212 214 216 215
197 193 200 208 202 183 159 180 209 184 229 217 199 211 214 216 222 220 221 214 216 223 218 229 232 231 231 233 240 239 225 226 234 253 252 272 274 291 334 88 280 295 283 219 229 213 256 314 287 300 262 201 234 207 210 213 226 215 213 215 216 217 217 215 213 218 216 217 215 214 213 214 215 217 216 215 214 214 214 215 217 212 212 217 218
196 177 177 186 191 181 168 166 166 170 185 204 211 199 206 211 220 226 220 213 214 220 219 226 229 228 233 233 238 238 238 244 249 256 278 289 314 328 62 131 148 163 74 111 73 333 303 292 262 273 240 226 215 227 220 226 227 209 217 219 217 221 225 215 216 225 218 218 219 217 215 215 216 218 220 218 216 216 215 216 217 210 209 218 215
176 199 176 174 173 170 161 164 168 174 172 184 200 191 189 195 206 220 232 229 223 222 219 221 226 227 229 236 244 245 245 248 255 258 229 183 159 172 199 163 158 186 164 137 149 155 195 221 300 317 329 308 283 263 252 227 226 226 226 239 245 238 233 225 225 231 224 219 220 219 217 216 217 218 220 219 217 215 214 214 215 211 207 215 220
141 142 147 153 164 165 174 182 191 196 198 184 193 211 206 196 201 211 220 223 227 227 221 219 219 216 216 220 227 207 191 217 230 227 208 221 210 203 228 225 231 257 12 208 161 143 175 214 245 226 107 324 297 314 178 189 239 244 252 241 234 239 243 236 235 236 238 225 222 220 218 218 218 219 219 218 217 216 213 212 212 211 207 211 217
142 143 150 162 168 181 189 197 196 204 200 193 206 224 220 199 196 199 204 210 215 214 211 208 208 194 198 198 188 179 184 202 224 226 223 231 225 234 237 226 186 166 172 171 141 186 245 284 319 296 49 230 275 273 263 222 227 244 259 252 251 242 237 242 235 237 236 227 219 223 223 223 224 222 220 219 218 217 216 213 213 212 210 210 212
41 39 171 173 182 176 192 197 212 213 217 218 224 235 243 229 193 187 196 204 206 207 206 204 202 205 207 208 203 198 204 213 222 227 231 238 235 245 236 211 171 188 211 169 179 114 318 322 346 49 272 249 223 248 265 219 245 231 237 250 256 243 231 235 251 246 236 240 235 225 221 221 225 225 226 223 221 220 219 217 216 216 215 213 213
225 223 198 194 191 185 188 193 211 212 214 226 234 236 230 218 196 189 188 203 214 220 218 212 205 203 205 208 205 202 210 217 219 230 216 229 226 242 229 200 195 200 211 180 155 80 16 12 244 244 256 287 297 272 300 321 296 269 238 233 251 257 242 227 236 252 255 246 252 242 229 232 238 235 234 230 228 229 227 227 224 223 221 216 213
230 217 200 186 169 181 192 200 209 212 212 221 220 219 211 207 203 203 202 204 208 215 222 225 222 217 216 217 216 214 216 221 224 222 213 208 200 227 226 189 201 214 228 214 132 103 268 252 251 238 255 257 255 264 269 252 237 244 266 198 252 257 268 272 255 221 235 240 245 241 229 213 227 227 216 227 226 234 234 228 229 228 227 222 215
230 231 195 164 160 188 208 222 228 225 229 240 230 202 181 189 198 208 213 217 219 224 231 239 245 236 233 228 238 239 239 239 239 236 228 214 212 205 213 190 194 194 200 172 121 130 217 249 257 242 244 246 247 240 245 243 243 264 271 256 260 267 275 269 272 247 220 220 234 238 237 217 218 227 207 224 221 214 224 221 226 224 224 222 217
214 216 178 186 184 172 164 160 165 207 215 194 103 89 98 99 161 191 213 232 235 241 240 238 244 239 235 233 240 258 264 264 268 280 280 271 234 220 219 216 203 191 189 185 160 170 218 230 229 234 238 255 255 240 236 246 234 239 249 254 257 270 265 275 281 295 208 216 231 231 243 203 194 231 225 223 225 212 222 224 222 224 221 222 218
233 125 135 145 117 112 80 41 17 9 15 63 105 105 75 250 264 230 230 241 236 233 241 244 246 244 243 241 244 247 252 251 248 246 259 267 266 249 239 231 218 200 194 184 200 213 219 224 221 225 232 243 255 253 254 244 248 252 254 258 258 258 263 262 265 268 265 219 228 239 251 188 197 227 241 234 229 223 225 227 228 228 220 224 221
140 140 185 144 87 65 68 46 34 337 353 343 4 329 328 311 264 262 245 242 246 246 243 250 249 245 239 237 238 236 244 259 258 216 206 233 247 241 209 183 123 166 247 210 215 228 220 224 233 236 231 249 257 248 234 246 225 249 257 258 260 257 253 257 262 274 271 203 263 264 259 214 192 219 241 240 232 232 234 232 232 231 221 226 222
173 158 40 14 93 117 127 129 142 177 149 321 308 296 287 291 262 197 226 262 266 265 259 254 253 242 234 231 237 247 245 256 263 265 264 253 264 276 289 255 185 207 231 220 218 225 227 231 230 239 247 236 251 265 266 248 247 253 258 263 263 262 256 253 261 265 265 177 225 261 267 236 192 221 238 247 236 238 235 235 231 230 222 214 216
98 78 221 229 62 63 83 94 157 195 219 201 228 256 278 287 299 301 301 296 286 286 299 291 267 245 233 226 225 237 249 239 236 243 242 242 222 248 254 262 226 192 169 204 246 244 231 220 229 243 259 263 261 260 253 252 248 245 244 250 253 257 269 278 277 251 261 219 232 232 263 264 179 229 242 249 246 243 239 241 235 231 224 213 214
136 167 192 150 146 154 157 171 186 218 232 213 230 257 272 279 279 276 282 278 280 277 274 286 299 263 219 212 227 238 247 234 249 321 286 207 220 242 252 253 245 121 151 159 210 242 258 258 241 250 261 273 285 278 267 264 261 258 259 265 277 285 286 276 273 285 272 258 213 241 262 270 215 253 267 251 248 251 246 248 239 226 223 219 211
114 150 179 163 169 176 181 185 204 228 267 202 287 278 272 281 323 313 314 302 306 308 295 287 282 266 248 210 206 232 239 207 157 173 284 266 168 243 252 278 337 349 282 135 145 229 287 288 274 275 277 280 282 281 277 266 251 253 268 271 262 258 258 264 266 268 265 260 231 216 249 268 240 242 271 264 240 254 250 242 239 223 221 222 212
155 187 159 146 172 178 182 186 169 188 279 258 233 255 269 333 316 330 345 355 315 304 299 290 272 288 297 292 276 233 217 156 145 169 267 262 165 187 235 290 304 301 286 315 333 298 306 300 283 267 267 270 271 270 265 257 251 235 217 246 254 238 249 250 261 260 278 255 265 224 240 250 263 232 260 272 285 243 244 254 263 253 223 224 214
131 134 134 113 68 28 29 111 235 201 201 238 243 265 281 349 354 7 358 7 350 326 334 322 314 290 343 4 20 107 157 163 160 167 269 356 132 174 201 250 279 281 268 228 265 298 317 332 321 324 308 300 309 315 14 35 6 198 209 237 277 284 272 288 322 328 300 294 23 350 284 263 254 245 231 303 284 254 53 360 359 355 349 203 210